Home > Weather > Sioux City > Past weeks

Flag for U.S.A. Weather for the Past 2 Weeks in Sioux City, Iowa, U.S.A.

Now
25 °F

Passing clouds.


Feels Like: 10 °F
Forecast: 13 / 22 °F
Wind: 22 mph from North

Location: Sioux Gateway Airport

Current Time: Feb 8, 2016 at 10:34:07 PM

Latest Report: Feb 8, 2016 at 9:52 PM


Visibility: 10 mi

Pressure: 30.14 "Hg

Humidity: 60%

Dew point: 13 °F

Location of Sioux CityLocation

Historic Weather in Sioux City — Graph

°F

Sioux City Temperature Yesterday

Maximum temperature yesterday: 42 °F (at 2:52 AM)
Minimum temperature yesterday: 26 °F (at 12:52 AM)
Average temperature yesterday: 36 °F

High & Low Weather Summary for the Past Weeks

 TemperatureHumidityPressure
High43 °F (Jan 29, 2:52 PM)92% (Jan 31, 4:52 AM)30.39 "Hg (Jan 31, 4:52 AM)
Low7 °F (Feb 3, 10:52 PM)49% (Feb 7, 12:52 PM)29.55 "Hg (Jan 30, 2:52 PM)
Average30 °F77%29.98 "Hg
* Reported Jan 24 8:52 PM — Feb 8 8:52 PM, Sioux City, Weather by CustomWeather, © 2016

Note: Actual official high and low records may vary slightly from our data, if they occured in-between our weather recording intervals... More about our weather records

Advertising

Sioux City Weather History for the Previous 24 Hours

 ConditionsComfort  
Time TempWeatherWind HumidityBarometerVisibility
8:52 PM
Mon, Feb 8
27 °FClear.22 mph61%30.14 "Hg10 mi
7:52 PM27 °FClear.23 mph63%30.14 "Hg10 mi
6:52 PM28 °FClear.17 mph64%30.14 "Hg10 mi
5:52 PM28 °FClear.17 mph66%30.15 "Hg10 mi
4:52 PM28 °FSunny.29 mph66%30.14 "Hg10 mi
3:52 PM29 °FPassing clouds.25 mph64%30.14 "Hg10 mi
2:52 PM29 °FOvercast.35 mph61%30.12 "Hg10 mi
2:03 PM28 °FPartly sunny.32 mph64%30.07 "Hg10 mi
12:52 PM28 °FOvercast.32 mph61%30.12 "Hg10 mi
11:52 AM26 °FLight snow. Overcast.38 mph66%30.15 "Hg10 mi
10:52 AM25 °FLight snow. Partly sunny.38 mph63%30.16 "Hg9 mi
9:52 AM25 °FLight snow. Mostly cloudy.35 mph69%30.11 "Hg5 mi
9:01 AM25 °FLight snow. Mostly cloudy.35 mph69%30.07 "Hg4 mi
7:52 AM26 °FLight snow. Overcast.36 mph66%30.08 "Hg9 mi
6:52 AM26 °FMostly cloudy.30 mph66%30.07 "Hg9 mi
5:52 AM26 °FMostly cloudy.24 mph71%30.05 "Hg10 mi
4:52 AM27 °FLight snow. Mostly cloudy.38 mph66%30.04 "Hg10 mi
3:52 AM27 °FLight snow. Overcast.32 mph69%30.02 "Hg9 mi
2:52 AM28 °FLight snow. Mostly cloudy.30 mph69%30.02 "Hg10 mi
1:52 AM29 °FMostly cloudy.29 mph66%29.99 "Hg9 mi
12:52 AM29 °FOvercast.23 mph72%30.00 "Hg10 mi
11:52 PM
Sun, Feb 7
30 °FMostly cloudy.24 mph69%30.00 "Hg10 mi
10:52 PM30 °FLight snow. Overcast.35 mph66%30.00 "Hg9 mi
10:04 PM31 °FLight snow. Overcast.41 mph69%29.95 "Hg3 mi
Weather by CustomWeather, © 2016

See weather overviewHow to use our weather pages